SNAKE1 ETNL-ETNL

Flight info

Callsign SNAKE1
Flight time 1h 0m
Altitude 1111
Route KUBAB TR401VFRSTAY1/0100 DCT LAG
Aircraft EUFI/M-GIRLTUYZ/LB1

Departure

Time 2026-04-16 18:06
Airport Rostock-Laage Airport (ETNL)

Arrival

Time 2026-04-16 19:06
Airport Rostock-Laage Airport (ETNL)
Time Latitude Longitude Altitude Speed Heading
2026-04-16 17:37 53.92244 12.26829 146 ft 0 kts 97°
2026-04-16 17:55 53.92244 12.26830 145 ft 2 kts 100°
2026-04-16 17:55 53.92200 12.26839 145 ft 12 kts 136°
2026-04-16 17:55 53.92186 12.27001 145 ft 15 kts 96°
2026-04-16 17:55 53.92178 12.27168 145 ft 15 kts 92°
2026-04-16 17:56 53.92165 12.27336 145 ft 15 kts 97°
2026-04-16 17:56 53.92151 12.27508 145 ft 15 kts 98°
2026-04-16 17:56 53.92126 12.27863 145 ft 16 kts 95°
2026-04-16 17:57 53.92108 12.28056 145 ft 16 kts 97°
2026-04-16 17:57 53.92093 12.28243 145 ft 18 kts 98°
2026-04-16 17:57 53.92075 12.28435 146 ft 15 kts 96°
2026-04-16 17:57 53.92065 12.28586 146 ft 11 kts 97°
2026-04-16 17:58 53.92055 12.28733 146 ft 11 kts 102°
2026-04-16 17:58 53.92036 12.28881 146 ft 13 kts 100°
2026-04-16 17:58 53.92026 12.29012 146 ft 10 kts 98°
2026-04-16 17:58 53.92016 12.29135 146 ft 13 kts 98°
2026-04-16 17:59 53.91981 12.29225 146 ft 9 kts 186°
2026-04-16 17:59 53.91946 12.29299 146 ft 13 kts 96°
2026-04-16 17:59 53.91935 12.29430 146 ft 10 kts 98°
2026-04-16 17:59 53.91927 12.29540 146 ft 8 kts 96°
2026-04-16 18:00 53.91919 12.29649 146 ft 9 kts 95°
2026-04-16 18:00 53.91911 12.29741 146 ft 7 kts 101°
2026-04-16 18:00 53.91947 12.29788 146 ft 6 kts 356°
2026-04-16 18:00 53.91945 12.29826 146 ft 0 kts 117°
2026-04-16 18:02 53.91926 12.29849 146 ft 3 kts 199°
2026-04-16 18:02 53.91888 12.29793 146 ft 7 kts 182°
2026-04-16 18:02 53.91842 12.29796 146 ft 6 kts 178°
2026-04-16 18:03 53.91810 12.29798 146 ft 3 kts 178°
2026-04-16 18:03 53.91793 12.29799 146 ft 2 kts 178°
2026-04-16 18:03 53.91784 12.29799 146 ft 0 kts 178°
2026-04-16 18:03 53.91774 12.29800 146 ft 3 kts 178°
2026-04-16 18:04 53.91759 12.29801 146 ft 0 kts 178°
2026-04-16 18:05 53.91686 12.29790 148 ft 15 kts 219°
2026-04-16 18:05 53.91686 12.29624 147 ft 15 kts 276°
2026-04-16 18:05 53.91689 12.29581 147 ft 0 kts 278°
2026-04-16 18:06 53.91720 12.29115 144 ft 125 kts 276°
2026-04-16 18:06 53.91888 12.26934 777 ft 220 kts 278°
2026-04-16 18:06 53.92118 12.23978 2281 ft 304 kts 280°
2026-04-16 18:07 53.92424 12.20395 3653 ft 300 kts 283°
2026-04-16 18:07 53.93430 12.17440 4841 ft 305 kts 320°
2026-04-16 18:07 53.95424 12.16239 5956 ft 325 kts 360°
2026-04-16 18:07 53.97570 12.17426 7078 ft 343 kts 33°
2026-04-16 18:08 53.99063 12.20498 7878 ft 336 kts 70°
2026-04-16 18:08 53.99306 12.24553 9243 ft 353 kts 98°
2026-04-16 18:08 53.98748 12.28609 10746 ft 360 kts 105°
2026-04-16 18:08 53.98062 12.32744 12483 ft 366 kts 105°
2026-04-16 18:09 53.97341 12.36997 14309 ft 384 kts 106°
2026-04-16 18:09 53.96616 12.41335 16062 ft 389 kts 104°
2026-04-16 18:09 53.95892 12.45867 17856 ft 414 kts 104°
2026-04-16 18:09 53.95120 12.50661 18592 ft 422 kts 105°
2026-04-16 18:10 53.94343 12.55424 18690 ft 417 kts 105°
2026-04-16 18:10 53.93567 12.60173 18800 ft 419 kts 105°
2026-04-16 18:10 53.92781 12.64936 18791 ft 418 kts 105°
2026-04-16 18:10 53.91993 12.69670 18728 ft 417 kts 105°
2026-04-16 18:11 53.91203 12.74402 18653 ft 417 kts 105°
2026-04-16 18:11 53.90413 12.79119 18567 ft 415 kts 105°
2026-04-16 18:11 53.89623 12.83825 18472 ft 415 kts 105°
2026-04-16 18:11 53.88841 12.88465 18374 ft 414 kts 105°
2026-04-16 18:12 53.88053 12.93140 18423 ft 414 kts 105°
2026-04-16 18:12 53.86939 12.97616 18384 ft 411 kts 126°
2026-04-16 18:12 53.84897 13.00926 18431 ft 410 kts 152°
2026-04-16 18:12 53.82245 13.02465 18587 ft 404 kts 177°
2026-04-16 18:13 53.79494 13.02109 18632 ft 394 kts 201°
2026-04-16 18:13 53.76938 13.00508 18648 ft 392 kts 205°
2026-04-16 18:13 53.74413 12.98836 18646 ft 388 kts 205°
2026-04-16 18:13 53.71894 12.97162 18640 ft 391 kts 205°
2026-04-16 18:14 53.69365 12.95494 18629 ft 389 kts 205°
2026-04-16 18:14 53.66878 12.93867 18620 ft 389 kts 205°
2026-04-16 18:14 53.64348 12.92214 18610 ft 390 kts 205°
2026-04-16 18:14 53.61794 12.90702 18563 ft 391 kts 193°
2026-04-16 18:15 53.59044 12.90910 18421 ft 407 kts 167°
2026-04-16 18:15 53.56503 12.92947 18415 ft 410 kts 144°
2026-04-16 18:15 53.54515 12.96442 18313 ft 415 kts 123°
2026-04-16 18:15 53.53395 13.00862 18355 ft 415 kts 101°
2026-04-16 18:16 53.53268 13.05685 18544 ft 410 kts 78°
2026-04-16 18:16 53.54154 13.10186 18650 ft 405 kts 56°
2026-04-16 18:16 53.55952 13.13707 18640 ft 393 kts 32°
2026-04-16 18:16 53.58338 13.15670 18609 ft 386 kts 10°
2026-04-16 18:17 53.60968 13.16430 18614 ft 382 kts
2026-04-16 18:17 53.63598 13.17051 18617 ft 381 kts
2026-04-16 18:17 53.66233 13.17669 18612 ft 383 kts
2026-04-16 18:17 53.68861 13.18292 18604 ft 381 kts
2026-04-16 18:18 53.71491 13.18920 18589 ft 382 kts
2026-04-16 18:18 53.74120 13.19551 18579 ft 382 kts
2026-04-16 18:18 53.76745 13.20187 18576 ft 380 kts
2026-04-16 18:18 53.79340 13.20819 18592 ft 384 kts
2026-04-16 18:19 53.81981 13.21465 18612 ft 382 kts
2026-04-16 18:19 53.84613 13.22115 18620 ft 383 kts
2026-04-16 18:19 53.87258 13.22772 18621 ft 383 kts
2026-04-16 18:19 53.89329 13.24754 18509 ft 347 kts 71°
2026-04-16 18:20 53.89284 13.29199 18541 ft 426 kts 96°
2026-04-16 18:20 53.88951 13.34132 18561 ft 416 kts 95°
2026-04-16 18:20 53.88620 13.39010 18562 ft 415 kts 95°
2026-04-16 18:20 53.88300 13.43778 18565 ft 412 kts 95°
2026-04-16 18:21 53.87985 13.48609 18560 ft 413 kts 95°
2026-04-16 18:21 53.87622 13.53426 18553 ft 400 kts 111°
2026-04-16 18:21 53.85641 13.56105 18588 ft 392 kts 184°
2026-04-16 18:21 53.82814 13.55922 18565 ft 403 kts 186°
2026-04-16 18:22 53.80026 13.55712 18492 ft 399 kts 186°
2026-04-16 18:22 53.77255 13.55507 18498 ft 398 kts 186°
2026-04-16 18:22 53.74494 13.55299 18499 ft 397 kts 186°
2026-04-16 18:22 53.71729 13.55204 18448 ft 399 kts 175°
2026-04-16 18:23 53.69286 13.57147 18495 ft 414 kts 140°
2026-04-16 18:23 53.67109 13.60452 18457 ft 416 kts 137°
2026-04-16 18:23 53.65082 13.63842 18387 ft 416 kts 135°
2026-04-16 18:23 53.63125 13.67353 18327 ft 383 kts 154°
2026-04-16 18:24 53.61227 13.66897 18056 ft 305 kts 230°
2026-04-16 18:24 53.59466 13.63757 18157 ft 390 kts 230°
2026-04-16 18:24 53.57659 13.60490 18183 ft 380 kts 230°
2026-04-16 18:24 53.55859 13.57242 18167 ft 377 kts 230°
2026-04-16 18:25 53.54147 13.53950 18127 ft 344 kts 255°
2026-04-16 18:25 53.54821 13.50540 17959 ft 365 kts 320°
2026-04-16 18:25 53.56858 13.47825 17953 ft 368 kts 320°
2026-04-16 18:25 53.58837 13.45197 18023 ft 367 kts 320°
2026-04-16 18:26 53.60836 13.42536 18159 ft 366 kts 320°
2026-04-16 18:26 53.62828 13.39890 18277 ft 365 kts 320°
2026-04-16 18:26 53.64834 13.37228 18397 ft 367 kts 320°
2026-04-16 18:26 53.66834 13.34576 18507 ft 366 kts 320°
2026-04-16 18:27 53.68843 13.31916 18606 ft 368 kts 320°
2026-04-16 18:27 53.70856 13.29255 18707 ft 367 kts 320°
2026-04-16 18:27 53.72865 13.26602 18812 ft 368 kts 320°
2026-04-16 18:27 53.74887 13.23935 18915 ft 368 kts 320°
2026-04-16 18:28 53.76907 13.21274 19030 ft 368 kts 320°
2026-04-16 18:28 53.78909 13.18640 19124 ft 371 kts 320°
2026-04-16 18:28 53.80947 13.15960 19218 ft 371 kts 320°
2026-04-16 18:28 53.82101 13.12727 19208 ft 343 kts 277°
2026-04-16 18:29 53.82344 13.08338 19272 ft 374 kts 276°
2026-04-16 18:29 53.82562 13.03973 19259 ft 373 kts 276°
2026-04-16 18:29 53.82772 12.99633 19242 ft 368 kts 276°
2026-04-16 18:29 53.82984 12.95313 19215 ft 369 kts 276°
2026-04-16 18:30 53.83197 12.90998 19184 ft 367 kts 276°
2026-04-16 18:30 53.83412 12.86697 19145 ft 367 kts 276°
2026-04-16 18:30 53.83600 12.82390 19138 ft 367 kts 275°
2026-04-16 18:30 53.82924 12.78983 19112 ft 305 kts 199°
2026-04-16 18:31 53.80425 12.78689 18999 ft 416 kts 185°
2026-04-16 18:31 53.77562 12.78544 19061 ft 406 kts 185°
2026-04-16 18:31 53.74740 12.78410 19091 ft 404 kts 185°
2026-04-16 18:31 53.71938 12.78276 19107 ft 402 kts 185°
2026-04-16 18:32 53.69139 12.78134 19124 ft 403 kts 185°
2026-04-16 18:32 53.67475 12.76464 18847 ft 258 kts 277°
2026-04-16 18:32 53.67607 12.72707 18913 ft 378 kts 275°
2026-04-16 18:32 53.67783 12.68322 19005 ft 369 kts 275°
2026-04-16 18:33 53.67957 12.63997 19034 ft 368 kts 275°
2026-04-16 18:33 53.68132 12.59720 19057 ft 366 kts 275°
2026-04-16 18:33 53.68307 12.55489 19086 ft 366 kts 275°
2026-04-16 18:33 53.68484 12.51241 19116 ft 363 kts 275°
2026-04-16 18:34 53.68664 12.46968 19153 ft 365 kts 275°
2026-04-16 18:34 53.69670 12.44485 18994 ft 279 kts
2026-04-16 18:34 53.72106 12.45093 19006 ft 402 kts
2026-04-16 18:34 53.74811 12.45822 18943 ft 389 kts
2026-04-16 18:35 53.77477 12.46548 18920 ft 386 kts
2026-04-16 18:35 53.80119 12.47275 18890 ft 384 kts
2026-04-16 18:35 53.82761 12.48006 18866 ft 384 kts
2026-04-16 18:35 53.85001 12.49937 18792 ft 396 kts 60°
2026-04-16 18:36 53.85274 12.54631 18859 ft 435 kts 95°
2026-04-16 18:36 53.84950 12.59609 18873 ft 422 kts 95°
2026-04-16 18:36 53.84637 12.64544 18941 ft 419 kts 95°
2026-04-16 18:36 53.84324 12.69360 19697 ft 417 kts 95°
2026-04-16 18:37 53.83994 12.74333 20614 ft 427 kts 95°
2026-04-16 18:37 53.83661 12.79347 21161 ft 434 kts 95°
2026-04-16 18:37 53.83321 12.84435 21200 ft 431 kts 95°
2026-04-16 18:37 53.82987 12.89488 21199 ft 433 kts 95°
2026-04-16 18:38 53.82651 12.94542 21208 ft 431 kts 95°
2026-04-16 18:38 53.82317 12.99513 21209 ft 432 kts 95°
2026-04-16 18:38 53.81975 13.04561 21209 ft 431 kts 95°
2026-04-16 18:38 53.82421 13.09278 21323 ft 410 kts 45°
2026-04-16 18:39 53.84846 13.10645 21334 ft 382 kts 332°
2026-04-16 18:39 53.86199 13.07171 21253 ft 388 kts 275°
2026-04-16 18:39 53.86370 13.02571 21181 ft 383 kts 275°
2026-04-16 18:39 53.86533 12.98075 20938 ft 379 kts 274°
2026-04-16 18:40 53.86676 12.93648 20941 ft 378 kts 274°
2026-04-16 18:40 53.86817 12.89206 20939 ft 376 kts 274°
2026-04-16 18:40 53.86928 12.84853 21003 ft 376 kts 274°
2026-04-16 18:40 53.87042 12.80410 21092 ft 377 kts 274°
2026-04-16 18:41 53.87157 12.75985 21173 ft 377 kts 274°
2026-04-16 18:41 53.87271 12.71525 21167 ft 378 kts 274°
2026-04-16 18:41 53.87386 12.67095 21157 ft 377 kts 274°
2026-04-16 18:41 53.87506 12.62659 21116 ft 376 kts 274°
2026-04-16 18:42 53.87632 12.58245 21056 ft 375 kts 274°
2026-04-16 18:42 53.87423 12.53942 21106 ft 367 kts 243°
2026-04-16 18:42 53.86746 12.49824 21038 ft 384 kts 276°
2026-04-16 18:42 53.86929 12.45279 20882 ft 380 kts 275°
2026-04-16 18:43 53.87093 12.40876 20625 ft 377 kts 275°
2026-04-16 18:43 53.87256 12.36502 20556 ft 369 kts 275°
2026-04-16 18:43 53.87004 12.32146 20719 ft 378 kts 254°
2026-04-16 18:43 53.85710 12.28250 20885 ft 388 kts 232°
2026-04-16 18:44 53.83556 12.25451 20969 ft 397 kts 209°
2026-04-16 18:44 53.80839 12.24300 21112 ft 414 kts 186°
2026-04-16 18:44 53.77966 12.25006 21183 ft 422 kts 162°
2026-04-16 18:44 53.75424 12.27585 21308 ft 438 kts 139°
2026-04-16 18:45 53.73591 12.31640 21281 ft 436 kts 115°
2026-04-16 18:45 53.72785 12.36562 21237 ft 438 kts 95°
2026-04-16 18:45 53.72475 12.41661 21216 ft 435 kts 94°
2026-04-16 18:45 53.72175 12.46667 21201 ft 435 kts 94°
2026-04-16 18:46 53.71871 12.51763 21190 ft 435 kts 94°
2026-04-16 18:46 53.71566 12.56837 21169 ft 434 kts 94°
2026-04-16 18:46 53.71260 12.61907 21194 ft 434 kts 94°
2026-04-16 18:46 53.70952 12.66973 21239 ft 434 kts 94°
2026-04-16 18:47 53.70642 12.72042 21268 ft 435 kts 95°
2026-04-16 18:47 53.70330 12.77114 21292 ft 435 kts 95°
2026-04-16 18:47 53.70016 12.82189 21304 ft 434 kts 95°
2026-04-16 18:47 53.69703 12.87262 21312 ft 435 kts 95°
2026-04-16 18:48 53.69390 12.92341 21321 ft 435 kts 95°
2026-04-16 18:48 53.69081 12.97340 21300 ft 434 kts 95°
2026-04-16 18:48 53.68767 13.02413 21261 ft 435 kts 95°
2026-04-16 18:48 53.68454 13.07479 21215 ft 434 kts 95°
2026-04-16 18:49 53.68141 13.12545 21176 ft 433 kts 95°
2026-04-16 18:49 53.67829 13.17563 21123 ft 429 kts 95°
2026-04-16 18:49 53.67518 13.22589 21063 ft 431 kts 95°
2026-04-16 18:49 53.67209 13.27609 20999 ft 429 kts 95°
2026-04-16 18:50 53.66903 13.32614 20930 ft 430 kts 94°
2026-04-16 18:50 53.66599 13.37619 20861 ft 429 kts 94°
2026-04-16 18:50 53.66317 13.42611 20801 ft 424 kts 89°
2026-04-16 18:50 53.66790 13.47396 20906 ft 422 kts 65°
2026-04-16 18:51 53.68334 13.51514 21019 ft 413 kts 41°
2026-04-16 18:51 53.70639 13.54210 21087 ft 399 kts 17°
2026-04-16 18:51 53.73315 13.54943 21388 ft 392 kts 352°
2026-04-16 18:51 53.75889 13.53658 21473 ft 383 kts 327°
2026-04-16 18:52 53.77845 13.50706 21281 ft 380 kts 304°
2026-04-16 18:52 53.78878 13.46682 21038 ft 374 kts 281°
2026-04-16 18:52 53.79087 13.42266 20966 ft 378 kts 274°
2026-04-16 18:52 53.79214 13.37843 20982 ft 376 kts 274°
2026-04-16 18:53 53.79335 13.33477 20985 ft 378 kts 274°
2026-04-16 18:53 53.79455 13.29045 20989 ft 376 kts 274°
2026-04-16 18:53 53.79585 13.24629 21000 ft 377 kts 274°
2026-04-16 18:53 53.79711 13.20186 21000 ft 377 kts 274°
2026-04-16 18:54 53.79833 13.15764 20996 ft 376 kts 274°
2026-04-16 18:54 53.79955 13.11331 20990 ft 377 kts 274°
2026-04-16 18:54 53.79979 13.06893 20641 ft 379 kts 264°
2026-04-16 18:54 53.79090 13.02758 19904 ft 379 kts 238°
2026-04-16 18:55 53.77195 12.99608 19173 ft 385 kts 216°
2026-04-16 18:55 53.74682 12.97970 18352 ft 394 kts 193°
2026-04-16 18:55 53.71950 12.98006 17381 ft 395 kts 171°
2026-04-16 18:55 53.69396 12.99751 16447 ft 400 kts 148°
2026-04-16 18:56 53.67445 13.02936 15588 ft 398 kts 125°
2026-04-16 18:56 53.66331 13.07130 14950 ft 394 kts 101°
2026-04-16 18:56 53.66292 13.11661 14483 ft 385 kts 76°
2026-04-16 18:56 53.67498 13.15460 13939 ft 366 kts 36°
2026-04-16 18:57 53.69783 13.16950 13587 ft 351 kts 360°
2026-04-16 18:57 53.72135 13.16314 13289 ft 343 kts 334°
2026-04-16 18:57 53.74009 13.13994 12993 ft 338 kts 307°
2026-04-16 18:58 53.75188 13.06532 11572 ft 332 kts 275°
2026-04-16 18:58 53.75332 13.02679 10162 ft 323 kts 274°
2026-04-16 18:58 53.75465 12.98940 8741 ft 316 kts 274°
2026-04-16 18:58 53.75596 12.95246 7428 ft 313 kts 274°
2026-04-16 18:59 53.75727 12.91634 6340 ft 312 kts 274°
2026-04-16 18:59 53.75861 12.88002 5277 ft 307 kts 274°
2026-04-16 18:59 53.75989 12.84409 4239 ft 304 kts 275°
2026-04-16 18:59 53.76113 12.80866 3247 ft 301 kts 275°
2026-04-16 19:00 53.76256 12.77329 2534 ft 302 kts 279°
2026-04-16 19:00 53.76588 12.73848 2123 ft 301 kts 285°
2026-04-16 19:00 53.76927 12.71586 1994 ft 301 kts 288°
2026-04-16 19:00 53.77693 12.67055 1989 ft 300 kts 289°
2026-04-16 19:01 53.78272 12.63677 1997 ft 301 kts 289°
2026-04-16 19:01 53.79047 12.60444 1953 ft 297 kts 306°
2026-04-16 19:01 53.80460 12.57968 1937 ft 293 kts 325°
2026-04-16 19:01 53.82110 12.55954 1822 ft 291 kts 324°
2026-04-16 19:02 53.83734 12.53915 1734 ft 292 kts 324°
2026-04-16 19:02 53.85261 12.51717 1719 ft 291 kts 320°
2026-04-16 19:02 53.86786 12.49451 1726 ft 293 kts 320°
2026-04-16 19:02 53.88305 12.47163 1721 ft 293 kts 319°
2026-04-16 19:03 53.89827 12.44874 1723 ft 292 kts 319°
2026-04-16 19:03 53.90990 12.42308 1617 ft 255 kts 271°
2026-04-16 19:03 53.90901 12.39171 1701 ft 292 kts 273°
2026-04-16 19:03 53.91088 12.35666 1694 ft 301 kts 279°
2026-04-16 19:04 53.91360 12.32123 1679 ft 303 kts 280°
2026-04-16 19:04 53.91667 12.28614 1648 ft 298 kts 281°
2026-04-16 19:04 53.91026 12.26478 1461 ft 209 kts 153°
2026-04-16 19:04 53.90431 12.28510 1266 ft 207 kts 95°
2026-04-16 19:05 53.90262 12.30554 1132 ft 144 kts 94°
2026-04-16 19:05 53.90576 12.31946 973 ft 140 kts
2026-04-16 19:05 53.91379 12.31501 582 ft 159 kts 300°
2026-04-16 19:05 53.91662 12.29813 164 ft 152 kts 279°
2026-04-16 19:06 53.91793 12.28130 150 ft 152 kts 278°
2026-04-16 19:06 53.91913 12.26613 145 ft 109 kts 279°
2026-04-16 19:06 53.91998 12.26081 144 ft 22 kts 21°
2026-04-16 19:06 53.92099 12.26168 145 ft 11 kts 27°
2026-04-16 19:07 53.92166 12.26226 145 ft 10 kts 27°
2026-04-16 19:07 53.92193 12.26250 145 ft 0 kts 27°
2026-04-16 19:08 53.92214 12.26267 145 ft 5 kts 26°
2026-04-16 19:08 53.92239 12.26321 145 ft 8 kts 84°
2026-04-16 19:08 53.92232 12.26428 145 ft 9 kts 98°
2026-04-16 19:09 53.92223 12.26536 145 ft 9 kts 98°
2026-04-16 19:09 53.92215 12.26644 145 ft 9 kts 97°
2026-04-16 19:09 53.92230 12.26731 145 ft 8 kts 12°
2026-04-16 19:09 53.92251 12.26750 145 ft 3 kts 97°
2026-04-16 19:10 53.92250 12.26762 145 ft 0 kts 99°